This is the latest recevied weather packets stored in our database for station/object DD6UBW. If no packets are shown the sender has not sent any weather packets the latest 10 day(s).
| Time | Temp. | Humidity | Pressure | Rain* | Wind** | Luminosity | Snow |
|---|---|---|---|---|---|---|---|
| 1788561001 | 16.67° C | 84% | 1009.6 hPa | 0 mm | - | - | - |
| 1788559200 | 16.67° C | 84% | 1008.6 hPa | 7.37 mm | - | - | - |
| 1788557401 | 16.67° C | 86% | 1008.6 hPa | 7.37 mm | - | - | - |
| 1788555601 | 17.22° C | 86% | 1007.6 hPa | 7.37 mm | - | - | - |
| 1788553801 | 17.22° C | 87% | 1007.6 hPa | 7.37 mm | - | - | - |
| 1788552001 | 16.67° C | 87% | 1007.6 hPa | 7.37 mm | - | - | - |
| 1788550201 | 16.67° C | 87% | 1006.6 hPa | 7.37 mm | - | - | - |
| 1788548401 | 16.67° C | 87% | 1007.6 hPa | 7.11 mm | - | - | - |
| 1788546600 | 16.67° C | 86% | 1006.6 hPa | 7.11 mm | - | - | - |
| 1788544800 | 17.22° C | 85% | 1006.6 hPa | 6.86 mm | - | - | - |
| 1788543000 | 17.78° C | 83% | 1005.6 hPa | 6.1 mm | - | - | - |
| 1788541200 | 18.33° C | 82% | 1005.6 hPa | 5.59 mm | - | - | - |
| 1788539400 | 18.89° C | 85% | 1006.6 hPa | 5.59 mm | - | - | - |
| 1788537600 | 19.44° C | 86% | 1005.6 hPa | 5.59 mm | - | - | - |
| 1788535801 | 20° C | 85% | 1005.6 hPa | 5.08 mm | - | - | - |
| 1788534001 | 20.56° C | 84% | 1004.6 hPa | 4.83 mm | - | - | - |
| 1788532201 | 25.56° C | 60% | 1003.6 hPa | 0 mm | - | - | - |
| 1788530400 | 25.56° C | 61% | 1003.6 hPa | 0 mm | - | - | - |
| 1788528601 | 25° C | 63% | 1003.6 hPa | 0 mm | - | - | - |
| 1788526800 | 23.89° C | 65% | 1004.6 hPa | 0 mm | - | - | - |
| 1788525001 | 23.89° C | 65% | 1004.6 hPa | 0 mm | - | - | - |
| 1788523201 | 23.33° C | 66% | 1005.6 hPa | 0 mm | - | - | - |
| 1788521401 | 23.33° C | 66% | 1005.6 hPa | 0 mm | - | - | - |
| 1788519601 | 23.33° C | 68% | 1006.6 hPa | 0 mm | - | - | - |
| 1788517803 | 23.33° C | 69% | 1006.6 hPa | 0 mm | - | - | - |
* Rain since midnight (hover to see other rain measurements)
** Current wind speed in m/s (hover to see current wind gust speed)